TimeCST,TemperatureF,Dew PointF,Humidity,Sea Level PressureIn,VisibilityMPH,Wind Direction,Wind SpeedMPH,Gust SpeedMPH,PrecipitationIn,Events,Conditions,WindDirDegrees,DateUTC
12:06 AM,53.6,53.6,100,29.76,1.0,Calm,Calm,-,N/A,,Mist,0,2013-12-03 06:06:00
12:16 AM,53.6,51.8,94,29.75,0.2,Calm,Calm,-,N/A,Fog,Fog,0,2013-12-03 06:16:00
12:53 AM,53.1,51.1,93,29.73,0.2,Calm,Calm,-,N/A,Fog,Fog,0,2013-12-03 06:53:00
1:01 AM,53.6,53.6,100,29.75,0.8,Calm,Calm,-,N/A,,Mist,0,2013-12-03 07:01:00
1:08 AM,51.8,51.8,100,29.75,0.5,Calm,Calm,-,N/A,Fog,Fog,0,2013-12-03 07:08:00
1:18 AM,51.8,51.8,100,29.75,0.2,Calm,Calm,-,N/A,Fog,Fog,0,2013-12-03 07:18:00
1:25 AM,51.8,51.8,100,29.74,0.8,SE,3.5,-,N/A,,Mist,130,2013-12-03 07:25:00
1:29 AM,53.6,51.8,94,29.74,2.0,SE,3.5,-,N/A,,Overcast,140,2013-12-03 07:29:00
1:40 AM,55.4,53.6,94,29.74,3.0,SSE,4.6,-,N/A,,Overcast,150,2013-12-03 07:40:00
1:53 AM,55.9,55.0,97,29.73,4.0,South,4.6,-,N/A,,Overcast,190,2013-12-03 07:53:00
2:16 AM,59.0,57.2,94,29.74,4.0,SSW,5.8,-,N/A,,Overcast,210,2013-12-03 08:16:00
2:53 AM,60.1,59.0,96,29.73,4.0,SSW,6.9,-,N/A,,Overcast,210,2013-12-03 08:53:00
3:53 AM,61.0,59.0,93,29.72,3.0,SSW,5.8,-,N/A,,Overcast,210,2013-12-03 09:53:00
4:12 AM,60.8,59.0,94,29.74,2.0,SSW,4.6,-,N/A,,Overcast,200,2013-12-03 10:12:00
4:48 AM,60.8,59.0,94,29.75,1.5,SSW,5.8,-,N/A,,Overcast,200,2013-12-03 10:48:00
4:53 AM,61.0,59.0,93,29.73,1.5,SSW,5.8,-,N/A,,Overcast,200,2013-12-03 10:53:00
5:08 AM,60.8,59.0,94,29.73,2.0,South,5.8,-,N/A,,Overcast,190,2013-12-03 11:08:00
5:53 AM,61.0,60.1,97,29.72,3.0,South,5.8,-,N/A,,Overcast,180,2013-12-03 11:53:00
6:23 AM,59.0,57.2,94,29.75,3.0,SE,3.5,-,N/A,,Mostly Cloudy,140,2013-12-03 12:23:00
6:32 AM,59.0,57.2,94,29.75,2.5,SSE,3.5,-,N/A,,Mostly Cloudy,160,2013-12-03 12:32:00
6:53 AM,60.1,57.9,93,29.73,2.0,SE,4.6,-,N/A,,Mostly Cloudy,130,2013-12-03 12:53:00
7:07 AM,60.8,57.2,88,29.75,1.5,SSE,5.8,-,N/A,,Mostly Cloudy,150,2013-12-03 13:07:00
7:15 AM,60.8,59.0,94,29.75,1.2,Calm,Calm,-,N/A,,Mostly Cloudy,0,2013-12-03 13:15:00
7:29 AM,59.0,57.2,94,29.76,1.0,SSE,4.6,-,N/A,,Mist,160,2013-12-03 13:29:00
7:35 AM,60.8,57.2,88,29.76,0.8,SSE,3.5,-,N/A,,Mist,150,2013-12-03 13:35:00
7:43 AM,60.8,59.0,94,29.77,0.8,SE,3.5,-,N/A,,Scattered Clouds,140,2013-12-03 13:43:00
7:51 AM,60.8,60.8,100,29.77,1.8,Calm,Calm,-,N/A,,Mostly Cloudy,0,2013-12-03 13:51:00
7:53 AM,61.0,60.1,97,29.75,1.8,SE,3.5,-,N/A,,Mostly Cloudy,130,2013-12-03 13:53:00
8:01 AM,60.8,59.0,94,29.77,2.0,SSE,3.5,-,N/A,,Mostly Cloudy,150,2013-12-03 14:01:00
8:21 AM,62.6,60.8,94,29.77,2.5,SSE,4.6,-,N/A,,Mostly Cloudy,160,2013-12-03 14:21:00
8:28 AM,62.6,60.8,94,29.77,3.0,SSE,4.6,-,N/A,,Overcast,150,2013-12-03 14:28:00
8:46 AM,62.6,60.8,94,29.77,4.0,South,6.9,-,N/A,,Overcast,170,2013-12-03 14:46:00
8:53 AM,63.0,61.0,93,29.75,4.0,South,6.9,-,N/A,,Overcast,170,2013-12-03 14:53:00
9:36 AM,66.2,60.8,83,29.77,9.0,South,8.1,-,N/A,,Overcast,190,2013-12-03 15:36:00
9:53 AM,68.0,62.1,81,29.74,10.0,South,8.1,-,N/A,,Mostly Cloudy,190,2013-12-03 15:53:00
10:53 AM,71.1,61.0,70,29.73,10.0,SSW,10.4,-,0.01,,Mostly Cloudy,210,2013-12-03 16:53:00
11:30 AM,71.6,60.8,69,29.74,10.0,SSW,6.9,-,N/A,,Mostly Cloudy,210,2013-12-03 17:30:00
11:42 AM,73.4,60.8,65,29.73,10.0,SW,10.4,-,N/A,,Mostly Cloudy,220,2013-12-03 17:42:00
11:51 AM,73.4,60.8,65,29.73,10.0,SW,15.0,19.6,N/A,,Mostly Cloudy,220,2013-12-03 17:51:00
11:53 AM,73.9,60.1,62,29.71,10.0,SW,12.7,19.6,N/A,,Mostly Cloudy,220,2013-12-03 17:53:00
12:53 PM,75.9,60.1,58,29.68,10.0,SSW,13.8,20.7,N/A,,Mostly Cloudy,200,2013-12-03 18:53:00
1:53 PM,77.0,57.9,52,29.66,10.0,SSW,16.1,26.5,N/A,,Scattered Clouds,200,2013-12-03 19:53:00
2:53 PM,75.0,57.9,55,29.66,10.0,SSW,15.0,20.7,N/A,,Partly Cloudy,200,2013-12-03 20:53:00
3:53 PM,75.9,57.9,54,29.65,10.0,South,12.7,-,N/A,,Scattered Clouds,190,2013-12-03 21:53:00
4:53 PM,72.0,57.9,61,29.67,10.0,South,8.1,-,N/A,,Clear,190,2013-12-03 22:53:00
5:53 PM,68.0,57.9,70,29.68,10.0,SSE,6.9,-,N/A,,Clear,160,2013-12-03 23:53:00
6:53 PM,66.0,59.0,78,29.68,10.0,SSE,8.1,-,N/A,,Clear,160,2013-12-04 00:53:00
7:53 PM,66.0,59.0,78,29.70,10.0,SSE,5.8,-,N/A,,Clear,160,2013-12-04 01:53:00
8:53 PM,66.9,61.0,81,29.72,10.0,South,10.4,-,N/A,,Clear,180,2013-12-04 02:53:00
9:53 PM,64.9,61.0,87,29.74,10.0,South,8.1,-,N/A,,Clear,170,2013-12-04 03:53:00
10:21 PM,64.4,60.8,88,29.76,10.0,South,6.9,-,N/A,,Mostly Cloudy,180,2013-12-04 04:21:00
10:53 PM,64.9,62.1,90,29.75,10.0,South,6.9,-,N/A,,Mostly Cloudy,170,2013-12-04 04:53:00
11:53 PM,66.0,63.0,90,29.75,10.0,South,6.9,-,N/A,,Mostly Cloudy,170,2013-12-04 05:53:00